Location: Rounton
(54.4000°N, 1.3500°W)
Time: 15:04:20
(UTC+00:00)

Transit 2A Rocket - Pass Details

Date: 06 December 2021
Orbit: 584 x 918 km, 66.7° (Epoch: 21 January)

Event Time Altitude Azimuth Distance (km) Brightness Sun altitude
Rises 13:32:40 0° 312° (NW) 3,558 8.2 10.3°
Reaches altitude 10° 13:35:23 10° 320° (NW) 2,622 7.5 10.2°
Maximum altitude 13:41:09 40° 29° (NNE) 1,322 5.9 9.8°
Drops below altitude 10° 13:46:46 10° 98° (E) 2,550 7.6 9.5°
Sets 13:49:22 0° 106° (ESE) 3,450 8.3 9.3°
